Tracking 19245 objects as of 18-Aug-2018
HD Live streaming from Space Station
objects crossing your sky now

USA 160

Track USA 160 now!
10-day predictions
USA 160 is classified as:


NORAD ID: 26905
Int'l Code: 2001-040A
Perigee: 809.7 km
Apogee: 1,417.5 km
Inclination: 63.4 °
Period: 107.4 minutes
Semi major axis: 7484 km
RCS: Unknown
Launch date: September 8, 2001
Source: United States (US)
Launch site: AIR FORCE WESTERN TEST RANGE (AFWTR)
aabbcc
Your satellite tracking list
Your tracking list is empty




NASA's NSSDC Master Catalog

Two Line Element Set (TLE):
1 26905U 01040A   18204.80198019 0.00000020  00000-0  22318-4 0    03
2 26905  63.4130  87.8473 0406000 358.9495   1.0505 13.40762630    04
Source of the keplerian elements: McCants